Theta_e
325 322 313 309 299 296 294 299 304 304 305 308 314 312 310 311 310 304 328 335 337 339 340 342 345 349 348 345 345 346 346 343 341 342 341 339 337 336 336 336 335 335 334 334 333 332 332 332 332
319 318 311 303 295 290 293 298 303 304 309 314 313 311 311 308 320 326 330 336 339 339 338 338 343 348 348 346 345 346 346 345 343 340 339 338 336 336 335 335 335 334 334 334 333 331 330 330 331
321 314 307 299 290 291 293 300 304 306 312 308 310 314 312 312 319 327 330 339 339 337 337 338 342 347 348 347 346 345 345 344 343 340 339 337 336 335 335 335 334 334 334 334 333 331 330 330 330
312 312 305 297 293 291 298 301 304 306 306 309 311 309 314 321 325 330 337 339 336 335 336 338 343 346 346 347 347 346 345 342 341 341 339 338 337 336 335 334 333 332 332 333 332 332 331 330 330
311 307 300 296 295 293 296 303 305 304 305 308 309 307 310 321 329 335 337 337 335 334 334 337 341 344 345 346 347 346 345 343 342 340 339 339 337 336 336 334 334 332 332 332 332 333 332 332 331
306 304 297 295 294 294 302 305 305 304 305 307 309 309 310 322 329 334 336 335 336 334 335 336 335 338 341 344 345 345 345 344 343 342 340 338 338 336 335 334 333 332 332 332 332 331 330 331 333
303 300 296 296 294 296 303 305 305 304 304 305 312 306 310 316 327 334 334 333 333 333 333 333 334 334 334 338 339 341 343 342 342 341 340 338 337 337 337 337 335 333 332 331 332 332 330 330 330
304 302 300 300 294 294 298 302 303 305 304 309 314 305 305 317 329 330 331 331 331 331 331 331 331 332 332 332 332 334 337 338 339 338 335 332 332 333 332 331 333 334 333 333 332 332 333 331 330
306 298 300 301 299 298 299 298 301 303 304 306 307 310 313 324 328 329 330 330 330 330 330 329 329 329 329 329 329 328 331 333 333 332 330 328 328 327 326 327 329 333 334 333 333 332 332 331 329
301 297 299 304 301 301 299 299 301 303 301 305 308 314 320 324 326 326 327 326 327 329 330 329 328 328 328 331 328 326 328 327 327 329 328 328 326 325 326 323 325 329 330 332 333 333 332 327 319
300 297 301 301 306 304 301 300 301 300 299 303 305 311 318 319 323 325 327 328 327 329 330 330 328 328 327 328 325 324 324 323 323 324 325 325 326 322 321 320 320 320 320 321 324 323 322 320 319
297 300 301 302 301 303 300 304 301 300 301 305 306 316 319 319 322 323 324 327 329 329 330 330 328 327 327 327 325 323 322 321 320 321 322 322 321 319 318 317 317 317 318 317 317 317 317 317 318
296 297 299 300 300 299 303 301 302 303 306 305 310 320 320 319 321 324 325 325 326 327 327 327 328 328 328 325 324 322 322 323 322 320 321 320 319 319 317 317 316 316 316 316 316 315 315 314 315
297 297 296 297 298 298 301 299 302 301 304 305 314 317 319 320 320 319 321 323 324 327 327 328 327 328 327 326 324 324 322 322 321 320 321 320 320 318 317 317 317 316 316 316 316 315 314 314 314
298 294 295 294 296 296 300 296 299 302 303 303 308 314 317 320 321 321 323 323 325 327 328 328 328 328 327 326 325 325 323 323 323 323 322 322 322 320 319 318 317 318 317 316 315 314 314 313 314
295 292 288 293 296 297 296 289 296 297 298 300 301 302 310 316 320 322 324 324 325 326 328 329 331 329 328 328 327 326 325 323 322 323 323 322 323 322 320 319 319 319 317 316 315 315 314 313 313
289 284 286 291 295 294 294 290 295 297 295 295 296 297 299 301 307 316 322 325 325 325 327 328 329 329 328 328 328 327 326 324 324 323 322 322 322 322 322 321 321 318 318 317 317 316 315 313 312
286 285 287 287 292 291 291 293 296 296 296 296 297 297 297 298 300 304 314 322 325 325 326 327 328 329 329 329 328 327 326 326 326 324 324 323 323 322 321 322 320 318 318 317 315 315 313 314 314
289 288 286 289 292 290 289 290 294 294 295 296 297 297 297 298 301 301 303 310 318 322 324 325 326 328 328 327 325 326 326 328 328 327 326 325 325 324 322 322 321 319 319 319 317 316 315 315 312
290 287 285 291 293 290 288 289 292 293 294 295 296 296 297 297 298 298 300 300 305 316 320 323 325 326 327 328 328 326 326 327 328 329 328 327 326 326 324 324 324 321 321 319 319 318 316 314 314
287 286 285 287 291 289 286 285 287 291 291 293 294 295 295 294 295 297 297 298 299 304 314 319 322 324 326 328 325 323 321 320 320 323 325 326 326 326 325 325 324 324 324 323 323 322 320 319 317
285 290 290 290 287 281 285 277 285 288 290 291 293 293 292 292 293 294 295 296 297 299 301 312 318 321 324 326 325 324 324 322 325 325 324 324 324 325 324 324 324 324 324 322 323 322 321 320 318
285 292 290 288 285 284 281 279 283 285 288 291 291 292 292 293 293 295 295 297 297 298 298 300 303 313 320 323 326 324 323 325 325 323 322 323 324 325 325 325 324 324 324 324 322 321 321 322 320
292 290 289 287 284 274 280 280 278 283 286 288 291 293 293 293 293 294 295 297 296 297 297 298 299 303 307 317 322 322 321 322 322 322 321 323 324 325 324 325 324 324 324 323 323 322 321 321 321
290 286 276 276 276 273 279 279 281 286 287 287 290 292 292 293 294 293 294 295 297 297 299 299 299 300 301 303 306 314 319 320 320 321 323 322 322 323 324 323 323 323 323 323 323 322 321 321 321
289 286 278 271 273 274 281 277 281 285 288 289 290 291 293 293 294 294 294 294 295 296 299 299 300 301 302 302 302 303 303 305 310 316 319 321 322 323 323 324 324 323 323 322 323 323 322 322 321
288 284 287 280 269 273 278 281 285 287 287 289 289 291 291 293 293 293 294 294 295 296 298 298 299 301 302 302 303 305 305 304 303 305 307 311 314 319 319 321 323 322 322 321 322 322 321 322 322
291 291 283 280 270 268 276 277 278 282 286 287 288 288 290 292 293 294 295 294 294 295 296 298 299 298 299 300 301 304 305 306 307 306 306 307 310 312 314 316 319 320 321 321 322 322 322 321 322
286 285 285 286 281 274 271 276 282 285 287 286 287 288 289 290 291 292 294 295 294 295 295 296 296 296 297 298 299 299 301 302 303 304 305 307 308 310 311 313 315 316 318 320 321 321 320 319 320
290 286 285 279 278 281 279 278 287 287 288 287 287 287 288 290 291 291 292 292 294 294 293 293 294 294 294 296 297 297 297 297 297 298 299 301 302 304 306 307 308 310 313 316 318 318 319 319 319
Wind_Speed
4 5 2 5 5 5 2 2 2 3 1 2 2 4 7 3 4 4 0 5 13 16 10 9 13 14 16 14 13 13 14 14 13 11 11 10 10 10 10 9 8 8 8 8 9 9 9 8 9
2 3 5 3 5 2 4 3 4 2 4 5 5 3 3 1 2 5 8 7 14 14 10 8 12 12 16 16 14 13 14 14 13 11 10 9 9 9 8 8 7 7 7 7 8 8 7 7 7
4 3 4 5 3 4 4 3 5 1 5 2 3 3 1 1 2 9 2 12 11 10 8 8 12 13 14 15 14 13 12 12 11 10 10 9 9 8 8 7 6 5 6 6 6 6 6 6 6
2 4 5 4 2 4 4 2 3 6 2 2 3 4 1 2 5 6 10 14 11 8 7 10 13 13 13 13 14 13 12 12 11 11 10 9 9 8 7 7 6 4 4 4 4 4 4 4 4
4 3 4 2 4 2 3 3 6 4 3 2 1 3 0 2 3 10 13 12 13 8 7 9 13 13 13 12 14 13 13 12 11 10 10 9 8 8 7 7 6 5 4 3 2 2 1 2 3
4 3 4 1 3 3 2 4 5 2 1 2 3 3 1 0 6 11 14 11 9 9 7 7 10 11 12 11 11 13 13 12 11 10 10 9 7 8 7 5 3 4 5 4 2 1 1 3 4
6 4 2 2 2 2 3 5 4 3 3 2 6 4 2 2 5 10 8 9 8 6 7 5 5 6 9 9 9 9 11 12 10 9 9 9 8 7 7 5 5 4 2 3 4 3 3 4 5
5 4 1 1 2 1 0 4 2 5 3 2 2 2 4 4 8 7 6 6 6 6 6 6 6 5 5 5 7 8 7 7 8 8 8 7 7 7 7 7 5 7 7 6 5 5 6 7 7
4 4 1 1 2 3 1 1 1 1 5 1 3 3 3 8 11 8 6 4 5 5 6 6 6 5 5 5 4 5 6 6 7 7 8 6 3 4 5 5 6 7 6 6 8 8 7 7 7
5 4 5 2 2 1 2 0 3 3 2 2 3 1 5 8 11 15 12 11 11 10 10 6 6 6 5 4 5 5 4 4 4 5 5 4 5 4 5 5 6 8 8 8 9 9 8 6 3
3 5 4 2 1 1 4 2 2 5 3 7 7 5 7 5 8 13 14 14 13 11 8 9 6 6 7 5 4 2 2 3 3 5 5 5 4 3 3 3 3 3 5 3 4 4 3 4 3
5 4 4 1 3 2 1 0 2 5 4 3 6 5 8 10 13 13 13 15 15 15 15 12 9 7 7 4 4 4 3 3 3 4 5 4 3 4 4 3 4 4 3 4 4 3 4 5 5
3 4 3 1 3 3 1 3 3 6 5 3 2 7 11 11 11 9 9 7 8 12 11 11 9 9 8 7 4 4 5 5 5 5 5 4 4 4 4 4 3 4 3 4 4 4 4 5 5
1 1 1 1 1 2 2 1 1 3 2 3 4 8 8 11 12 5 7 10 11 11 12 9 11 11 8 8 7 6 5 5 4 4 6 7 5 5 4 5 5 5 4 4 4 5 4 5 4
1 1 4 3 3 4 5 4 9 5 3 2 3 6 6 8 5 12 12 13 11 11 9 11 12 10 10 11 9 7 6 6 6 7 8 9 8 7 7 6 5 6 5 6 4 5 4 4 4
2 4 2 3 5 2 6 7 9 5 3 8 6 6 7 8 9 8 7 8 8 9 11 10 10 11 12 11 8 7 7 7 7 7 7 10 9 9 7 6 6 5 5 4 4 4 5 5 4
5 3 4 6 5 2 5 5 4 5 2 4 4 5 6 8 9 9 10 11 9 10 10 11 11 13 13 12 8 8 8 7 7 6 7 8 9 9 8 7 7 6 5 5 6 5 6 4 4
6 4 3 4 2 2 2 7 8 4 4 6 7 8 8 8 12 8 9 12 11 9 11 11 9 13 11 8 7 5 6 6 6 7 8 9 8 9 9 8 7 6 6 6 4 7 4 6 5
2 4 2 2 3 1 3 5 12 2 4 9 9 8 8 10 10 7 8 7 8 8 10 14 13 12 8 6 6 7 9 8 8 8 10 10 10 11 10 8 7 7 9 9 8 5 7 6 4
3 4 1 5 1 1 4 8 11 5 6 7 8 9 10 8 9 8 8 7 7 8 10 10 12 11 11 9 7 5 5 7 7 8 10 12 13 13 11 11 10 10 8 9 9 9 5 4 6
2 4 2 3 5 3 6 7 5 4 2 4 7 8 7 7 11 12 9 8 7 8 7 8 9 9 10 12 3 2 1 0 1 6 8 9 12 12 13 12 11 10 9 10 11 11 12 10 5
3 5 4 2 3 4 2 7 6 5 8 4 8 9 8 9 8 7 10 9 9 8 6 6 6 7 7 8 8 11 10 9 9 8 6 8 10 11 11 12 11 11 9 11 11 9 11 11 11
5 5 5 2 3 4 5 2 8 2 5 7 9 11 10 9 8 9 8 8 7 7 7 6 4 4 5 6 10 8 10 8 7 3 5 6 7 10 10 11 12 12 10 12 12 10 11 10 10
6 6 6 4 3 2 6 6 5 3 3 5 9 12 11 11 9 9 8 7 7 7 8 7 7 5 4 1 5 6 7 7 5 5 5 5 5 6 10 12 11 11 11 13 12 13 13 12 11
2 6 2 2 1 6 3 2 8 3 5 5 5 7 8 8 10 10 12 11 12 11 8 7 9 7 7 6 4 3 5 5 6 7 7 7 5 5 8 10 10 10 12 12 11 11 12 13 12
7 6 5 6 4 2 2 5 1 4 7 5 2 3 6 11 10 10 9 8 8 9 9 8 8 8 8 7 7 4 4 4 4 5 5 6 7 7 7 8 10 11 11 11 11 10 10 12 12
4 4 5 6 3 3 3 5 7 5 7 8 9 11 11 9 9 10 10 10 12 12 10 9 9 8 8 7 6 7 6 6 6 7 6 6 7 7 7 7 10 11 11 11 12 10 11 12 12
2 4 3 2 2 4 3 3 6 1 5 8 14 11 11 11 12 12 11 9 8 7 8 11 11 9 8 9 7 6 6 6 5 5 6 6 7 7 8 8 9 10 9 10 11 10 11 12 11
1 1 4 3 3 4 1 5 5 8 4 7 8 8 8 8 8 10 10 8 7 8 11 11 13 13 14 13 11 9 8 8 7 6 7 7 6 7 8 8 9 9 9 9 10 11 11 12 13
3 3 3 3 4 2 1 6 6 6 4 3 5 6 8 8 8 7 7 8 11 10 10 10 10 11 12 12 11 10 10 10 10 10 11 10 10 8 7 7 7 8 9 10 10 11 10 12 13
Wind_Direction
342 130 79 42 54 62 269 288 308 117 107 341 111 147 178 127 166 205 143 168 139 153 153 154 159 155 145 146 144 151 148 140 139 141 134 129 126 124 123 122 113 108 103 100 95 90 88 86 77
117 114 50 82 84 59 267 245 181 223 142 125 61 24 60 157 94 117 129 164 150 151 151 154 158 154 152 153 156 149 149 147 145 144 149 143 137 137 131 124 122 120 111 102 94 89 88 82 75
115 38 88 92 106 177 220 221 153 111 155 64 97 58 116 174 100 159 184 150 145 146 150 154 159 158 156 156 159 160 156 151 152 155 155 156 155 148 141 141 140 132 120 110 98 92 81 72 68
90 15 39 87 212 244 198 206 151 126 287 31 126 68 353 283 167 182 142 149 143 140 145 157 162 165 162 163 165 165 158 162 167 169 170 171 170 165 164 155 148 138 131 129 122 108 79 59 51
39 55 60 57 281 267 255 163 148 142 137 113 271 176 303 38 87 130 144 149 154 144 146 158 165 170 168 165 175 170 164 165 171 178 182 182 181 183 181 177 171 167 161 132 120 78 54 6 2
45 91 59 237 261 298 309 151 131 127 84 144 81 129 203 282 126 150 152 146 155 154 154 163 171 170 172 176 171 167 170 172 176 184 183 189 200 195 199 198 190 191 200 190 196 183 320 320 321
102 78 191 249 262 332 163 142 143 150 130 248 148 123 285 191 159 152 147 134 137 144 153 159 168 177 175 180 185 185 182 178 177 188 189 186 190 204 214 219 222 217 224 244 226 235 270 291 301
105 95 133 6 232 247 223 157 126 152 201 93 168 196 260 201 143 116 112 121 141 151 162 170 170 176 184 188 191 196 193 187 193 195 194 191 190 200 206 205 227 236 242 247 252 260 270 279 288
125 57 181 116 168 281 100 141 142 97 124 211 204 163 307 132 128 127 146 137 158 177 179 175 177 181 181 188 208 212 213 204 204 210 196 195 197 218 225 222 221 240 249 248 257 264 269 278 293
90 116 230 151 191 241 164 174 174 125 123 251 284 99 101 138 155 168 181 187 193 196 199 191 184 184 179 189 186 202 209 214 222 207 205 194 199 206 210 228 236 239 245 250 256 261 265 276 269
150 176 210 238 151 216 148 153 159 135 225 221 210 186 153 161 172 184 194 198 199 202 202 202 197 187 183 193 185 201 201 197 213 210 197 200 202 211 215 223 246 241 249 250 265 280 280 270 266
137 217 176 351 16 14 69 58 211 185 225 118 232 168 163 175 191 194 198 201 199 201 208 205 193 191 202 194 191 185 185 196 215 216 206 194 202 208 216 217 228 231 231 245 244 252 267 272 266
184 177 179 299 315 305 333 251 257 254 255 283 98 165 184 193 203 211 209 200 196 207 204 202 191 197 200 196 189 193 205 198 205 203 206 195 210 215 212 227 228 230 228 228 239 237 249 258 261
43 159 168 278 259 293 222 287 90 283 340 150 173 214 205 203 207 201 203 211 204 209 209 196 199 202 194 201 199 203 194 202 196 202 209 204 206 208 210 218 223 228 216 226 225 228 238 250 248
65 90 341 237 200 236 152 304 242 235 333 290 218 245 246 246 217 221 222 221 214 218 209 203 201 198 197 204 205 207 205 199 207 214 208 208 207 212 214 219 226 232 218 226 226 238 236 250 251
142 51 100 288 166 248 122 263 270 261 237 267 276 270 261 259 241 241 236 235 211 216 211 207 205 202 209 211 206 208 206 205 210 208 208 214 214 213 214 220 228 221 217 215 222 229 247 244 238
11 190 194 311 206 96 156 242 287 13 227 283 300 307 292 289 271 248 231 231 216 209 215 214 206 207 206 213 208 212 211 210 213 212 216 212 213 212 216 221 230 207 217 217 225 230 225 233 239
198 201 231 224 26 91 108 260 274 277 349 285 287 295 293 283 270 255 245 238 228 208 206 211 205 214 204 207 210 211 215 218 218 216 219 212 215 208 213 227 225 196 214 226 215 233 219 235 237
145 143 185 258 25 8 233 259 276 321 285 289 287 286 271 265 267 265 272 261 235 223 206 208 209 207 196 194 200 222 228 224 224 220 219 212 213 213 213 224 218 202 220 227 212 212 226 249 192
62 105 196 278 4 71 347 279 277 271 241 229 266 279 277 277 311 311 286 278 254 239 228 225 220 206 203 208 213 202 190 224 225 224 218 214 214 215 214 218 223 216 225 226 218 210 223 226 171
164 149 193 233 346 64 344 298 307 314 269 288 264 256 292 327 301 309 310 300 293 265 246 228 230 216 210 209 173 133 92 326 212 223 229 220 218 218 218 220 226 231 226 239 234 223 225 243 206
209 186 161 172 85 237 20 286 310 313 317 296 292 7 342 342 336 339 341 335 334 320 317 284 265 225 213 187 197 205 217 230 232 231 218 224 210 219 217 221 224 226 227 232 234 223 223 226 239
202 155 169 151 95 34 347 331 272 298 303 291 33 15 3 350 358 355 357 352 344 358 2 357 343 293 267 204 210 211 227 240 256 243 230 224 221 219 220 222 224 226 227 233 231 221 216 217 225
145 84 51 53 90 334 209 178 275 225 357 5 20 25 11 0 354 359 348 354 357 355 1 357 359 10 8 273 222 229 235 244 255 257 247 246 236 227 223 226 228 230 230 231 230 228 223 222 225
96 102 30 11 8 227 334 135 243 359 9 46 58 18 354 350 7 3 3 359 356 357 4 1 7 359 2 14 3 301 276 271 263 262 264 262 254 236 232 227 228 226 229 231 231 228 226 224 226
184 167 152 197 191 249 354 227 205 23 95 91 73 339 10 11 3 1 360 360 356 351 358 2 7 355 355 354 343 329 289 266 260 262 268 274 270 263 244 232 235 233 231 230 229 233 231 228 229
188 194 153 102 19 62 220 285 47 47 34 17 15 18 9 0 350 345 349 2 357 3 359 0 2 359 3 357 357 352 348 340 318 312 307 294 289 284 275 250 246 241 235 232 233 233 233 230 227
111 151 92 12 148 233 253 251 187 98 45 5 12 2 351 352 358 356 354 357 350 356 359 14 13 359 345 350 356 351 342 342 326 310 303 295 294 288 286 278 265 261 248 238 237 243 237 233 231
49 126 55 117 148 182 213 257 214 153 123 28 351 348 340 342 341 341 347 353 2 9 18 17 17 9 3 355 349 349 349 349 346 344 335 329 318 314 311 302 293 281 270 257 250 244 245 246 244
106 84 142 145 217 242 191 264 149 154 136 317 327 330 325 327 328 329 339 355 12 13 9 12 13 12 1 352 356 5 7 0 359 354 347 343 337 328 316 313 305 299 293 281 271 266 251 246 244